TimeCDT,TemperatureF,Dew PointF,Humidity,Sea Level PressureIn,VisibilityMPH,Wind Direction,Wind SpeedMPH,Gust SpeedMPH,PrecipitationIn,Events,Conditions,WindDirDegrees,DateUTC
12:52 AM,44.1,34.0,68,30.23,10.0,South,5.8,-,N/A,,Clear,180,2011-10-02 05:52:00
1:52 AM,43.0,34.0,71,30.23,10.0,South,6.9,-,N/A,,Clear,180,2011-10-02 06:52:00
2:52 AM,42.1,35.1,76,30.22,10.0,South,5.8,-,N/A,,Clear,190,2011-10-02 07:52:00
3:52 AM,39.9,34.0,79,30.22,10.0,South,5.8,-,N/A,,Clear,190,2011-10-02 08:52:00
4:52 AM,39.0,34.0,82,30.23,10.0,South,6.9,-,N/A,,Clear,170,2011-10-02 09:52:00
5:52 AM,39.0,34.0,82,30.23,10.0,South,6.9,-,N/A,,Clear,180,2011-10-02 10:52:00
6:52 AM,39.0,34.0,82,30.24,10.0,South,6.9,-,N/A,,Clear,180,2011-10-02 11:52:00
7:52 AM,39.0,35.1,86,30.25,10.0,South,5.8,-,N/A,,Clear,180,2011-10-02 12:52:00
8:52 AM,46.0,37.0,71,30.24,9.0,South,8.1,-,N/A,,Clear,180,2011-10-02 13:52:00
11:52 AM,70.0,37.0,30,30.19,10.0,SSW,10.4,19.6,N/A,,Clear,210,2011-10-02 16:52:00
12:52 PM,73.9,37.0,26,30.17,10.0,SSW,11.5,-,N/A,,Clear,210,2011-10-02 17:52:00
1:52 PM,77.0,37.0,24,30.15,10.0,SSW,11.5,-,N/A,,Clear,210,2011-10-02 18:52:00
2:52 PM,79.0,36.0,21,30.13,10.0,South,10.4,-,N/A,,Clear,190,2011-10-02 19:52:00
3:52 PM,79.0,36.0,21,30.13,10.0,South,10.4,-,N/A,,Clear,190,2011-10-02 20:52:00
4:52 PM,79.0,36.0,21,30.12,10.0,SSW,10.4,-,N/A,,Clear,200,2011-10-02 21:52:00
5:52 PM,77.0,36.0,23,30.12,10.0,South,9.2,-,N/A,,Clear,180,2011-10-02 22:52:00
6:52 PM,69.1,36.0,30,30.12,10.0,South,4.6,-,N/A,,Clear,170,2011-10-02 23:52:00
7:52 PM,59.0,37.0,44,30.14,7.0,SSE,4.6,-,N/A,,Clear,160,2011-10-03 00:52:00
8:52 PM,55.0,37.0,51,30.15,8.0,SSE,5.8,-,N/A,,Clear,160,2011-10-03 01:52:00
9:52 PM,54.0,37.0,53,30.15,9.0,South,6.9,-,N/A,,Clear,190,2011-10-03 02:52:00
10:52 PM,50.0,37.0,61,30.15,9.0,South,8.1,-,N/A,,Clear,180,2011-10-03 03:52:00